HST,Max TemperatureF,Mean TemperatureF,Min TemperatureF,Max Dew PointF,MeanDew PointF,Min DewpointF,Max Humidity, Mean Humidity, Min Humidity, Max Sea Level PressureIn, Mean Sea Level PressureIn, Min Sea Level PressureIn, Max VisibilityMiles, Mean VisibilityMiles, Min VisibilityMiles, Max Wind SpeedMPH, Mean Wind SpeedMPH, Max Gust SpeedMPH,PrecipitationIn, CloudCover, Events, WindDirDegrees
2013-6-1,85,76,67,70,67,61,90,74,58,30.14,30.08,30.04,10,10,2,17,6,21,T,7,Rain,206
2013-6-2,81,75,68,72,67,60,93,78,62,30.14,30.10,30.07,10,8,2,15,7,18,0.08,7,Rain,222
2013-6-3,84,76,68,67,65,62,87,69,51,30.13,30.09,30.05,10,10,8,18,6,24,0.01,7,Rain,257
2013-6-4,83,76,68,68,65,60,84,69,54,30.09,30.05,30.00,10,10,7,18,7,23,T,6,Rain,49
2013-6-5,83,75,67,66,64,60,84,69,54,30.08,30.04,29.99,10,10,10,21,8,27,T,6,,50
2013-6-6,81,75,68,66,65,62,90,75,60,30.08,30.03,29.98,10,10,6,18,7,22,0.04,7,Rain,255
2013-6-7,82,75,67,68,65,61,90,74,58,30.08,30.04,29.99,10,10,4,18,8,22,0.02,6,Rain,186
2013-6-8,84,76,68,67,65,63,90,74,58,30.10,30.05,30.00,10,9,2,14,7,17,0.18,6,Rain,217
2013-6-9,84,77,69,68,66,63,90,74,58,30.11,30.08,30.04,10,10,8,14,8,18,T,6,Rain,276
2013-6-10,84,76,68,67,65,64,90,74,58,30.09,30.06,30.02,10,10,10,15,7,19,0.04,6,Rain,245
2013-6-11,84,76,68,67,64,60,79,65,51,30.08,30.04,30.00,10,10,10,16,6,18,0.01,7,Rain,217
2013-6-12,83,76,68,71,66,61,87,69,51,30.13,30.08,30.04,10,9,2,15,6,19,0.01,6,Rain,275
2013-6-13,82,75,67,69,66,63,90,74,58,30.15,30.11,30.08,10,9,2,16,6,21,0.44,6,Rain,226
2013-6-14,81,74,66,69,65,63,93,78,62,30.12,30.08,30.03,10,8,2,13,6,17,0.61,7,Rain,263
2013-6-15,83,75,67,66,64,61,93,72,51,30.08,30.02,29.97,10,10,2,14,7,17,0.13,4,Rain,247
2013-6-16,83,75,67,67,64,60,87,71,55,30.06,30.01,29.97,10,10,6,16,8,21,0.02,6,Rain,115
2013-6-17,83,77,70,68,66,63,90,74,58,30.12,30.05,30.01,10,10,10,15,8,20,0.08,5,Rain,138
2013-6-18,82,76,69,68,66,63,90,74,58,30.11,30.07,30.04,10,9,3,14,7,18,0.00,7,Rain,226
2013-6-19,83,81,78,67,65,63,90,73,55,30.10,30.07,30.04,10,10,7,13,7,18,0.17,7,Rain,249
2013-6-20,83,76,68,68,65,62,84,71,58,30.10,30.04,30.00,10,10,6,15,7,19,0.02,7,Rain,137
2013-6-21,82,76,69,69,67,63,84,73,62,30.09,30.04,30.00,10,9,2,18,6,23,0.03,8,Rain,197
2013-6-22,82,75,68,68,66,64,90,74,58,30.14,30.08,30.04,10,9,2,12,6,14,0.19,6,Rain,319
2013-6-23,83,76,69,69,67,64,90,74,58,30.14,30.11,30.07,10,10,2,14,6,19,0.27,6,Rain,153
2013-6-24,84,76,68,67,65,61,90,72,54,30.12,30.09,30.06,10,10,9,13,6,20,0.01,5,Rain,272
2013-6-25,85,76,67,67,64,56,74,66,58,30.10,30.06,30.02,10,10,9,16,6,19,T,6,,92
2013-6-26,84,76,67,69,67,64,93,74,55,30.09,30.05,30.01,10,8,2,16,7,20,0.12,6,Rain,272
2013-6-27,83,76,69,68,65,61,90,71,51,30.04,30.01,29.98,10,10,10,14,6,23,0.06,5,Rain,195
2013-6-28,85,76,66,64,61,55,78,65,51,30.03,30.00,29.95,10,10,8,18,8,22,T,4,Rain,265
2013-6-29,82,74,66,68,65,59,87,71,55,30.04,30.00,29.97,10,10,5,15,9,21,0.02,6,Rain,162
2013-6-30,83,77,70,68,65,61,90,73,55,30.07,30.03,29.99,10,10,5,14,7,18,0.03,5,Rain,292